SCP
1 1 0 0 0 0 0 0 0 0 0 0 0 0 0 0 0 0 0 0 0 0 0 0 0 0 0 0 0 0 0 0 0 0 0 0 0 0 0 0 0 0 0
1 1 0 0 0 0 0 0 0 0 0 0 0 0 0 0 0 0 0 0 0 0 0 0 0 0 0 0 0 0 0 0 0 0 0 0 0 0 0 0 0 0 0
1 0 0 0 0 0 0 0 0 0 0 0 0 0 0 0 0 0 0 0 0 0 0 0 0 0 0 0 0 0 0 0 0 0 0 0 0 0 0 0 0 0 0
0 0 0 0 0 0 0 0 0 0 0 0 0 0 0 0 0 0 0 0 0 0 0 0 0 0 0 0 0 0 0 0 0 0 0 0 0 0 0 0 0 0 0
0 0 0 0 0 0 0 0 0 0 0 0 0 0 0 0 0 0 0 0 0 0 0 0 0 0 0 0 0 0 0 0 0 0 0 0 0 0 0 0 0 0 0
0 1 1 1 1 0 0 0 0 0 0 0 0 0 0 0 0 0 0 0 0 0 0 0 0 0 0 0 0 0 0 0 0 0 0 0 0 0 0 0 0 0 0
0 0 1 1 1 0 0 0 0 0 0 0 0 0 0 0 0 0 0 0 0 0 0 0 0 0 0 0 0 0 0 0 0 0 0 0 0 0 0 0 0 0 0
0 0 1 1 1 0 0 0 0 0 0 0 0 0 0 0 0 0 0 0 0 0 0 0 0 0 0 0 0 0 0 0 0 0 0 0 0 0 0 0 0 0 0
0 0 0 0 0 0 0 0 0 0 0 0 0 0 0 0 0 0 0 0 0 0 0 0 0 0 0 0 0 0 0 0 0 0 0 0 0 0 0 0 0 0 0
0 0 0 0 0 0 0 0 0 0 0 0 0 0 0 0 0 0 0 0 0 0 0 0 0 0 0 0 0 0 0 0 0 0 0 0 0 0 0 0 0 0 0
0 0 0 0 0 0 0 0 0 0 0 0 0 0 0 0 0 0 0 0 0 0 0 0 0 0 0 0 0 0 0 0 0 0 0 0 0 0 0 0 0 0 0
0 0 0 0 0 0 0 0 0 0 0 0 0 0 0 0 0 0 0 0 0 0 0 0 0 0 0 0 0 0 0 0 0 0 0 0 0 0 0 0 0 0 0
0 0 0 0 0 0 0 0 0 0 0 0 0 0 0 0 0 0 0 0 0 0 0 0 0 0 0 0 0 0 0 0 0 0 0 0 0 0 0 0 0 0 0
0 0 0 0 0 0 0 0 0 0 0 0 0 0 0 0 0 0 0 0 0 0 0 0 0 0 0 0 0 0 0 0 0 0 0 0 0 0 0 0 0 0 0
0 0 0 0 0 0 0 0 0 0 0 0 0 0 0 0 0 0 0 0 0 0 0 0 0 0 0 0 0 0 0 0 0 0 0 0 0 0 0 0 0 0 0
0 0 0 0 0 0 0 0 0 0 0 0 0 0 0 0 0 0 0 0 0 0 0 0 0 0 0 0 0 0 0 0 0 0 0 0 0 0 0 0 0 0 0
0 0 0 0 0 0 0 0 0 0 0 0 0 0 0 0 0 0 0 0 0 0 0 0 0 0 0 0 0 0 0 0 0 0 0 0 0 0 0 0 0 0 0
0 0 0 0 0 0 0 0 0 0 0 0 0 0 0 0 0 0 0 0 0 0 0 0 0 0 0 0 0 0 0 0 0 0 0 0 0 0 0 0 0 0 0
0 0 0 0 0 0 0 0 0 0 0 0 0 0 0 0 0 0 0 0 0 0 0 0 0 0 0 0 0 0 0 0 0 0 0 0 0 0 0 0 0 0 0
0 0 0 0 0 0 0 0 0 0 0 0 0 0 0 0 0 0 0 0 0 0 0 0 0 0 0 0 0 0 0 0 0 0 0 0 0 0 0 0 0 0 0
0 0 0 0 0 0 0 0 0 0 0 0 0 0 0 0 0 0 0 0 0 0 0 0 0 0 0 0 0 0 0 0 0 0 0 0 0 0 0 0 0 0 0
1 1 0 0 0 0 0 0 0 0 0 0 0 0 0 0 0 0 0 0 0 0 0 0 0 0 0 0 0 0 0 0 0 0 0 0 0 0 0 0 0 0 0
1 1 0 0 0 0 0 0 0 0 0 0 0 0 0 0 0 0 0 0 0 0 0 0 0 0 0 0 0 0 0 0 0 0 0 0 0 0 0 0 0 0 0
0 0 0 0 0 0 0 0 0 0 0 0 0 0 0 0 0 0 0 0 0 0 0 0 0 0 0 0 0 0 0 0 0 0 0 0 0 0 0 0 0 0 0
0 0 0 0 0 0 0 0 0 0 0 0 0 0 0 0 0 0 0 0 0 0 0 0 0 0 0 0 0 0 0 0 0 0 0 0 0 0 0 0 0 0 0
0 0 0 0 0 0 0 0 0 0 0 0 0 0 0 0 0 0 0 0 0 0 0 0 0 0 0 0 0 0 0 0 0 0 0 0 0 0 0 0 0 0 0
Wind_Speed
6 5 5 4 4 4 4 4 4 3 4 4 4 4 4 4 4 5 4 4 5 4 4 5 4 4 3 3 3 3 2 2 2 2 2 3 4 5 6 5 4 4 4
6 6 5 5 5 4 4 4 4 5 4 4 4 4 4 4 4 4 4 4 5 4 4 4 4 4 4 3 3 3 2 2 2 1 2 3 3 4 5 5 5 5 4
6 6 5 5 5 5 4 4 5 5 5 4 5 5 4 3 4 4 4 4 4 3 3 4 3 4 4 3 3 3 3 3 2 2 2 2 2 4 4 5 5 4 5
7 7 6 6 6 5 5 5 5 5 5 5 4 4 3 3 4 4 5 4 4 3 3 3 3 3 3 2 3 3 3 3 3 2 2 2 2 3 3 4 5 4 4
8 7 6 6 5 6 5 5 5 5 5 4 4 4 3 3 3 4 4 5 4 4 4 3 3 4 5 4 3 2 3 2 2 2 2 2 3 3 3 3 3 4 3
8 7 7 6 6 6 6 5 5 5 4 5 4 4 4 3 6 7 6 4 4 4 3 3 3 4 6 7 7 5 4 3 2 1 1 1 3 2 2 2 2 3 4
8 8 7 7 7 6 7 6 5 5 5 5 4 4 4 3 7 8 8 5 4 3 3 2 3 4 4 3 5 7 6 5 3 2 1 1 2 2 2 3 2 2 3
8 8 8 8 7 7 6 6 4 4 4 4 4 3 3 3 6 7 8 5 4 3 2 2 2 2 2 2 3 4 3 3 2 1 1 2 2 2 1 1 2 2 3
8 8 8 8 8 7 7 6 5 4 4 3 3 4 3 2 5 7 8 4 3 2 1 1 1 1 3 4 3 2 3 3 4 4 4 4 5 5 3 2 2 2 3
9 8 8 8 9 8 7 6 4 5 4 4 3 3 3 2 4 6 7 3 3 1 1 1 2 2 3 3 2 1 2 3 4 5 5 6 5 5 6 1 1 1 2
8 8 8 8 8 7 6 5 5 5 5 4 3 2 2 2 3 5 6 3 3 2 0 1 1 3 3 3 1 1 1 2 2 2 3 4 4 4 4 3 1 2 2
8 8 7 7 7 7 7 5 5 6 5 4 3 1 0 0 1 3 5 4 4 2 1 1 1 3 3 4 2 2 3 3 1 2 2 3 3 4 4 4 3 3 3
9 8 7 7 6 6 7 6 5 5 5 4 3 2 1 1 1 2 3 3 3 2 1 2 1 2 3 3 4 4 3 1 1 1 2 3 3 4 4 3 4 4 4
10 8 7 7 6 5 5 5 5 5 5 4 4 3 2 1 1 1 1 1 2 1 0 1 2 2 2 2 3 3 1 1 1 2 2 3 3 3 3 3 3 3 3
9 7 6 6 6 5 4 4 6 6 7 7 6 5 5 4 5 6 4 3 2 2 1 1 1 1 2 2 2 2 2 2 1 2 2 3 3 3 3 3 2 2 2
8 7 6 5 5 5 4 2 1 3 5 7 7 6 5 6 6 6 6 5 4 4 3 1 1 1 2 2 2 2 2 2 2 2 2 3 3 3 4 3 2 2 3
8 7 5 5 5 5 5 5 3 0 1 4 6 7 6 6 6 6 6 5 4 4 2 2 2 2 3 2 2 2 3 3 2 2 2 3 3 3 3 3 3 3 4
7 7 6 5 5 5 5 5 4 4 3 2 3 5 5 6 5 5 5 4 1 1 2 3 3 3 3 3 3 3 3 3 2 2 3 3 3 3 3 3 3 4 4
6 5 5 4 4 4 4 4 3 4 3 2 1 1 3 3 3 3 4 2 3 3 3 3 3 3 3 3 3 3 3 3 3 3 3 4 3 3 4 4 4 6 6
5 6 6 4 4 3 3 4 3 3 3 3 3 3 2 2 1 1 2 2 2 3 3 3 3 3 3 3 3 3 3 3 4 4 4 4 4 4 5 5 5 5 5
4 5 6 4 4 4 4 4 4 4 3 3 3 3 5 3 3 3 3 3 3 4 4 4 3 3 3 3 3 3 4 4 4 4 4 4 4 4 4 5 5 5 6
4 4 4 4 4 3 3 3 3 3 3 3 2 2 3 2 2 3 3 3 4 4 4 3 3 4 4 4 4 4 4 4 4 4 5 5 5 5 5 5 5 5 5
4 4 3 3 3 4 3 3 3 3 3 3 3 2 2 2 2 2 3 3 3 3 3 3 3 3 3 4 4 4 4 5 5 5 5 5 5 5 5 6 7 7 7
4 4 4 3 3 3 3 3 3 3 3 3 2 2 3 3 2 2 2 2 2 2 2 2 3 5 6 4 3 4 4 5 5 4 6 6 5 5 5 6 7 7 7
4 4 4 4 4 3 3 3 3 3 2 3 3 2 2 2 2 2 2 2 2 2 3 3 3 3 5 6 5 5 6 8 7 5 4 4 6 6 6 7 7 7 7
3 3 3 3 3 3 3 3 2 2 2 2 2 2 2 2 2 2 2 2 2 2 3 3 4 5 5 5 6 7 8 8 8 8 5 4 5 6 6 6 8 7 8
Wind_Direction
158 153 142 143 135 128 125 130 127 117 112 109 104 95 86 75 72 76 72 73 75 62 53 62 49 40 45 35 38 46 50 88 114 317 326 340 3 3 355 353 0 3 357
160 149 145 139 129 126 128 128 121 116 112 113 107 101 92 82 78 82 81 77 78 71 59 59 43 46 45 37 43 44 42 54 106 29 341 349 357 353 353 356 2 5 353
150 142 138 137 136 137 134 124 118 116 110 105 103 104 99 92 83 83 90 87 82 77 71 70 52 58 52 42 50 47 37 43 54 78 354 345 344 352 356 353 358 353 356
148 146 148 152 149 144 136 125 121 118 113 111 105 106 107 100 94 91 91 88 80 68 65 68 62 71 77 69 60 50 50 48 43 48 18 352 345 339 360 356 352 347 344
150 152 157 153 141 133 129 125 120 115 115 116 107 95 95 100 108 108 101 96 86 67 50 47 51 61 67 72 75 71 68 59 46 41 18 2 349 352 350 336 339 326 330
155 159 154 145 139 137 135 127 120 116 110 107 106 104 93 95 112 112 111 100 91 82 61 39 42 46 50 53 58 65 77 88 82 63 23 355 320 315 320 337 338 351 334
156 156 154 149 146 146 140 129 129 128 118 113 114 109 103 107 111 107 106 104 98 92 84 61 47 42 44 45 44 44 44 54 78 127 131 277 290 300 329 339 333 314 285
156 158 158 152 150 147 140 140 144 138 133 130 129 122 111 111 113 109 107 95 92 90 98 99 80 26 31 51 51 39 27 20 22 54 196 262 275 275 259 281 277 299 297
162 166 165 157 153 151 151 155 153 141 136 134 136 128 119 118 117 115 109 97 89 66 59 79 81 53 30 50 65 45 12 349 359 7 349 336 334 337 344 3 355 3 326
171 168 164 159 157 159 160 156 149 142 140 136 125 127 130 135 129 125 119 113 102 75 31 16 26 29 23 43 80 77 12 328 341 348 350 348 346 345 349 334 269 298 300
163 157 159 159 159 156 150 148 143 134 126 125 125 119 127 141 140 132 132 129 142 132 83 335 324 358 14 24 48 139 279 319 341 345 338 337 340 339 331 321 282 232 248
150 153 160 158 158 151 144 144 141 137 133 135 128 116 60 204 167 157 149 148 145 145 192 249 286 348 14 16 15 349 346 2 11 353 343 332 329 323 315 313 307 283 255
150 156 159 153 150 150 150 150 147 148 150 158 157 169 205 250 236 182 170 167 158 159 207 236 315 2 5 360 358 357 358 15 7 340 316 303 295 296 306 315 320 311 303
155 159 157 152 149 150 153 158 160 166 167 172 177 184 193 209 227 220 203 186 170 161 172 13 15 17 7 336 344 346 335 285 272 270 286 292 304 315 317 314 312 320 318
154 157 157 156 156 156 161 175 179 191 186 181 188 185 183 206 224 203 183 187 188 187 143 59 26 7 356 341 334 325 322 332 317 302 299 306 309 311 306 304 301 307 306
154 159 161 160 160 161 158 152 194 189 194 193 190 185 202 209 203 199 198 194 189 170 133 149 241 255 260 272 286 299 299 291 284 287 293 293 297 299 300 302 302 299 295
159 162 162 162 165 168 168 167 172 267 184 196 199 198 199 199 198 197 196 189 182 161 155 210 231 242 251 257 261 262 269 273 272 279 285 290 292 296 296 297 299 297 292
156 161 160 166 168 172 176 178 176 177 187 228 232 210 200 200 199 194 179 149 164 183 204 220 235 242 246 250 254 256 262 275 273 273 275 282 286 289 289 285 285 284 286
153 157 158 157 161 166 168 168 173 179 182 187 195 242 214 194 186 187 166 167 197 219 226 232 237 240 244 246 251 254 255 261 265 268 273 276 278 278 282 279 280 284 282
154 152 147 149 152 157 162 165 173 177 181 186 197 207 184 140 160 204 203 205 210 227 230 233 240 241 242 244 249 253 260 265 271 270 272 274 274 272 276 279 278 280 278
146 152 148 146 157 164 167 174 178 178 184 195 212 210 180 175 194 205 212 216 218 225 232 236 240 243 243 244 247 252 255 261 262 265 269 273 273 274 273 272 273 274 278
146 153 159 163 161 162 164 166 166 172 182 189 203 209 195 179 196 209 221 230 230 230 229 229 236 240 240 240 243 250 255 260 263 263 267 270 271 272 274 275 275 277 278
147 149 151 152 154 159 158 160 167 174 181 185 183 180 186 203 214 222 231 240 243 243 239 232 241 254 256 249 244 241 248 256 260 261 264 269 271 272 274 276 277 276 277
146 149 151 153 151 155 163 170 176 180 181 185 189 194 200 210 220 230 236 243 254 259 254 246 246 253 261 265 260 254 254 261 265 262 260 266 271 275 277 277 276 275 277
145 149 153 159 160 161 165 169 173 179 183 188 193 199 205 210 221 234 237 241 256 264 271 273 272 271 269 269 272 273 273 273 277 280 273 268 271 274 277 278 276 280 280
145 149 151 152 157 163 168 176 184 186 191 200 200 201 204 210 219 225 229 235 248 261 270 273 273 278 282 279 274 275 279 282 283 285 284 275 275 278 281 280 280 278 279